www.pogodaiklimat.ru

Погода и климат >> Архив погоды >> Корея >> Ёнпхёндо


ПОГОДА на Ёнпхёндо

  • Прогноз погоды на Ёнпхёндо
  • Монитор погоды на Ёнпхёндо

АРХИВ ПОГОДЫ на Ёнпхёндо

Время (UTC), дата Ветер
(напр.,м/с)
 
Видим.   Явления Облачность Т
(С)
Тd
(С)
f
(%)
Тe
(С)
Тes
(С)
Комфортность P
(гПа)
Po
(гПа)
Тmin
(С)
Tmax
(С)
R
(мм)
R24
(мм)
S
(см)
15 9.06 18 км н/о +17.5 +16.1 91 +17 +17 1005.7 997.4
18 9.06 штиль 0 15 км 3/0
[]
+17.4 +17.0 97 +17 +17 1004.9 996.6
21 9.06 В 1 15 км 6/4
[]
+17.9 +15.6 86 +19 +19 1005.3 997.0
00 10.06 СВ 1 19 км 1/0
[]
+20.0 +16.4 80 +24 +35 комфорт 1005.7 997.4 +16.3
03 10.06 С 3 19 км 5/1 600 м
[]
+22.6 +18.3 77 +28 +40 душно 1005.8 997.7
06 10.06 З 2 19 км 8/8 600 м
[]
+20.1 +18.4 90 +24 +27 комфорт 1006.1 997.8
09 10.06 20 км н/о +21.1 +17.7 81 +25 +26 комфорт 1005.3 997.1
12 10.06 С 2 19 км 8/8 1000 м
[]
+18.5 +17.5 94 +20 +20 1007.3 999.0 +24.3
15 10.06 СВ 2 20 км ясно +17.8 +15.2 85 +18 +18 1007.6 999.3
18 10.06 штиль 0 19 км 4/0 2000 м
[]
+17.3 +16.6 96 +17 +17 1007.2 998.9
21 10.06 СВ 1 19 км 8/1 1500 м
[]
+17.6 +15.2 86 +19 +19 1008.0 999.7
00 11.06 СВ 1 20 км 9/9 1000 м
[]
+18.7 +16.6 88 +21 +24 комфорт 1009.3 1001.0 +16.8
03 11.06 З 2 19 км 6/6 600 м
[]
+21.0 +17.9 82 +26 +34 душно 1009.0 1000.8
06 11.06 штиль 0 20 км 5/5 300 м
[]
+21.0 +17.6 81 +25 +37 комфорт 1008.9 1000.7
09 11.06 СЗ 2 20 км 3/0
[]
+20.6 +17.7 83 +25 +27 комфорт 1008.6 1000.3
12 11.06 штиль 0 20 км 3/0
[]
+18.4 +17.0 92 +19 +19 1010.0 1001.7 +22.8 0.0
15 11.06 СВ 1 20 км 3/0
[]
+18.0 +16.3 90 +19 +19 1010.7 1002.4
18 11.06 В 3 12 км 1/0
[]
+17.2 +16.5 96 +17 +17 1010.2 1001.9
21 11.06 В 2 19 км 1/0
[]
+17.2 +15.5 90 +18 +18 1011.0 1002.6
00 12.06 В 5 20 км 3/0
[]
+21.1 +16.2 74 +24 +29 комфорт 1011.1 1002.9 +16.5 0.0
03 12.06 СВ 3 20 км 6/0
[]
+20.8 +18.3 86 +25 +38 комфорт 1011.2 1002.9
06 12.06 СВ 3 18 км 8/8 1000 м
[]
+20.6 +17.9 85 +25 +30 комфорт 1011.0 1002.7
09 12.06 СВ 3 20 км 8/8 600 м
[]
+19.5 +17.0 85 +22 +22 комфорт 1010.4 1002.2
12 12.06 В 1 20 км 6/0
[]
+18.2 +16.8 92 +20 +20 1011.3 1003.0 +21.8
15 12.06 В 2 9000 м 4/1 300 м
[]
+17.6 +16.9 96 +18 +18 1011.4 1003.1
18 12.06 В 4 7000 м ясно +16.6 +16.2 97 +16 +16 1010.4 1002.0
21 12.06 штиль 0 15 км 1/0
[]
+17.6 +15.7 89 +18 +18 1010.7 1002.4
00 13.06 С 2 20 км 5/0
[]
+20.9 +17.1 79 +25 +33 комфорт 1011.3 1003.0 +15.5
03 13.06 СЗ 3 20 км 8/0
[]
+20.9 +17.3 80 +25 +36 комфорт 1010.6 1002.3
06 13.06 С 3 20 км 8/8 600 м
[]
+21.2 +17.9 81 +25 +27 комфорт 1008.9 1000.7
09 13.06 В 2 19 км 9// 600 м
[]
+19.9 +18.2 90 +23 +24 комфорт 1007.9 999.6
12 13.06 штиль 0 20 км ?/? +19.4 +18.4 94 +22 +22 комфорт 1008.7 1000.5 +25.0
15 13.06 В 1 12 км 10/1 600 м
[]
+19.6 +17.9 90 +23 +23 комфорт 1008.3 1000.1
18 13.06 В 3 8000 м ?/? +19.0 +18.0 94 +21 +21 комфорт 1005.9 997.7 0.4
21 13.06 ЮВ 2 2800 м 10/3 300 м
[]
+19.2 +19.1 99 +22 +22 комфорт 1005.4 997.2
00 14.06 ЮВ 5 6000 м ?/? +19.3 +19.2 99 +21 +21 комфорт 1005.5 997.3 +18.4 22
03 14.06 СВ 4 11 км 10/4 100 м
[]
+19.9 +19.5 98 +23 +28 комфорт 1004.0 995.8
06 14.06 В 4 4700 м ?/? +18.8 +18.7 99 +20 +20 1002.9 994.7
09 14.06 СВ 5 10 км 9// 200 м
[]
+18.3 +18.2 99 +18 +19 1001.9 993.7
12 14.06 В 7 7000 м ?/? +17.2 +17.1 99 +16 +16 1002.7 994.4 +21.0 13
15 14.06 В 8 20 км 10//
[]
+18.1 +16.2 89 +17 +17 1002.2 994.0
18 14.06 3700 м н/о +18.5 +18.4 99 +19 +19 1001.5 993.3 4
21 14.06 СВ 4 20 км 6/4 1000 м
[]
+18.3 +17.4 94 +19 +19 1002.3 994.1
00 15.06 С 11 20 км 1/0
[]
+19.9 +17.2 84 +22 +22 комфорт 1003.4 995.2 +17.9 4
03 15.06 СВ 5 19 км 5/1
[]
+20.4 +18.6 89 +24 +32 комфорт 1003.1 994.9
06 15.06 17 км н/о +21.7 +19.4 87 +27 +30 душно 1001.9 993.8
09 15.06 С 6 12 км ясно +20.1 +19.0 93 +23 +24 комфорт 1002.0 993.8
12 15.06 7000 м н/о +18.8 +18.3 97 +20 +20 1003.8 995.6
15 15.06 С 6 12 км 3/0
[]
+18.3 +17.8 97 +18 +18 1005.2 996.9
18 15.06 С 6 16 км 3/0
[]
+18.3 +17.1 93 +18 +18 1004.9 996.6
21 15.06 С 6 19 км 1/0
[]
+18.8 +17.2 90 +20 +20 1006.0 997.8
00 16.06 С 5 19 км 4/0
[]
+20.9 +18.2 85 +25 +29 комфорт 1008.0 999.8
03 16.06 С 4 20 км 8/0
[]
+21.8 +18.5 82 +27 +35 душно 1009.3 1001.1
06 16.06 С 4 19 км 10/3
[]
+21.5 +19.0 86 +26 +30 душно 1009.3 1001.1
09 16.06 С 4 19 км 8/1 300 м
[]
+20.6 +18.3 87 +25 +25 комфорт 1009.8 1001.5
12 16.06 СВ 3 20 км 8/3 300 м
[]
+18.8 +17.8 94 +20 +20 1011.2 1002.9

 

Местоположение метеостанции Ёнпхёндо (Корея): широта 33.20 долгота 126.26 высота над уровнем моря 13 м.

В архиве по умолчанию представлена погода на Ёнпхёндо за последнюю неделю. Архивные данные за месяц целиком и за предыдущие месяцы, начиная с января 2011 года, Вы можете получить, выбрав интересующий диапазон дат из раскрывающегося списка и нажав кнопку "Ввод!".


*Определитесь, кто Вы:
робот инопланетянин человек

Внимание! Время в таблицах - всемирное. Для получения местного времени необходимо прибавить поправку, которая равна 9 ч.

Смотрите также архив погоды в соседних городах и на ближайших метеорологических станциях:

Погода в Согвипхо (Корея) (28 км)
Погода на Чеджудо (Корея) (44 км)
Погода на Сеонгсане (Корея) (61 км)
Погода в Уондо (Корея) (140 км)
Погода на Радаре Jindo (Корея) (141 км)
Погода в Мокпхо (Корея) (181 км)
Погода в Хыксандо (Корея) (181 км)
Погода в Йосу (Корея) (219 км)
Погода в Сунчхоне (Корея) (226 км)
Погода в Кванджу (Корея) (227 км)

Пояснения к столбцам:

Ветер - указаны скорость ветра в м/с - средняя за 10 мин, порывы в срок и между сроками (в фигурных скобках) и направление, откуда дует ветер: С - северный, СВ - северо-восточный, В - восточный, ЮВ - юго-восточный, Ю - южный, ЮЗ - юго-западный, З - западный, СЗ - северо-западный.
Видимость - горизонтальная дальность видимости в метрах или километрах. При видимости от 1 до 10 км при отсутствии осадков обычно наблюдается дымка, при ухудшении видимости до 1 км и менее - туман. В сухую погоду видимость может ухудшаться дымом, пылью или мглою.
Явления - указаны атмосферные явления, наблюдавшиеся в срок или в последний час перед сроком; фигурными скобками обозначены явления, наблюдавшиеся между сроками (за 1-3 часа до срока); квадратными скобками обозначены град или гололедные отложения с указанием их диаметра в мм.
Облачность - указаны через наклонную черту общая и нижняя облачность в баллах и высота нижней границы облаков в метрах; квадратными скобками обозначены формы облаков: Ci - перистые, Cs - перисто-слоистые, Cc - перисто-кучевые, Ac - высококучевые, As - высокослоистые, Sc - слоисто-кучевые, Ns - слоисто-дождевые, Cu - кучевые, Cb - кучево-дождевые. Подробнее классификацию облаков см. в Атласе облаков (PDF).
T - Температура воздуха - температура, измеренная на высоте 2 м над землей.
Td - Температура точки росы - температура, при понижении до которой содержащийся в воздухе водяной пар достигнет насыщения.
f - Относительная влажность воздуха - влажноcть воздуха, измеренная на высоте 2 м над землей.
Te - Эффективная температура - температура, которую ощущает одетый по сезону человек в тени. Характеристика душности погоды. При расчете учитывается влияние влажности воздуха и скорости ветра на теплоощущения человека.
Tes - Эффективная температура на солнце - температура, которую ощущает человек, с поправкой на солнечный нагрев. Характеристика знойности погоды. Зависит от высоты солнца над горизонтом, облачности и скорости ветра. Ночью, в пасмурную погоду, а также при ветре 12 м/с и более поправка равна нулю.
P - Атмосферное давление - приведенное к уровню моря атмосферное давление.
Po - Атмосферное давление - измеренное на уровне метеостанции атмосферное давление.
Tmin - Минимальная температура - минимум температуры воздуха на высоте 2 м над землей.
Tmax - Максимальная температура - максимум температуры воздуха на высоте 2 м над землей.
R - Количество осадков - Количество выпавших осадков за период времени, мм. При наведении курсора мыши на число - период времени, за который выпало указанное количество осадков.
R24 - Количество осадков - Количество выпавших осадков за 24 часа, мм.
S - Снежный покров - Высота снежного покрова, см. При наведении курсора мыши на число - состояние снежного покрова и степень покрытия местности в баллах.